CPA939 VHHH-RPLL

Flight info

Callsign CPA939
Flight time N/A
Altitude 33000
Route DALO1X/07R DALOL V642 NOMAN A461 AVMUP W16 TADEL TADE3R/06
Aircraft A359/H-SDE2E3GHIJ1J3J4J5LM1ORWXYZ/LB1D1

Departure

Time 2026-05-05 07:47
Airport Hong Kong International Airport (VHHH)

Arrival

Time N/A
Airport Ninoy Aquino International Airport (RPLL)
Time Latitude Longitude Altitude Speed Heading
2026-05-05 07:21 22.31223 113.91605 36 ft 0 kts 72°
2026-05-05 07:34 22.31222 113.91599 37 ft 2 kts 98°
2026-05-05 07:34 22.31224 113.91582 37 ft 2 kts 102°
2026-05-05 07:34 22.31227 113.91567 37 ft 2 kts 88°
2026-05-05 07:35 22.31224 113.91551 37 ft 2 kts 69°
2026-05-05 07:35 22.31219 113.91536 37 ft 2 kts 69°
2026-05-05 07:35 22.31215 113.91521 37 ft 2 kts 92°
2026-05-05 07:35 22.31218 113.91505 37 ft 2 kts 117°
2026-05-05 07:36 22.31227 113.91492 37 ft 2 kts 139°
2026-05-05 07:36 22.31238 113.91483 37 ft 0 kts 160°
2026-05-05 07:36 22.31242 113.91482 37 ft 0 kts 161°
2026-05-05 07:39 22.31239 113.91483 37 ft 1 kts 161°
2026-05-05 07:39 22.31197 113.91499 36 ft 9 kts 161°
2026-05-05 07:39 22.31125 113.91526 37 ft 12 kts 161°
2026-05-05 07:40 22.31044 113.91557 36 ft 11 kts 161°
2026-05-05 07:40 22.30962 113.91586 37 ft 15 kts 161°
2026-05-05 07:40 22.30852 113.91628 36 ft 17 kts 160°
2026-05-05 07:40 22.30743 113.91669 36 ft 15 kts 160°
2026-05-05 07:41 22.30638 113.91708 36 ft 16 kts 161°
2026-05-05 07:41 22.30571 113.91730 36 ft 7 kts 173°
2026-05-05 07:41 22.30523 113.91706 36 ft 9 kts 235°
2026-05-05 07:41 22.30489 113.91622 37 ft 15 kts 250°
2026-05-05 07:42 22.30448 113.91496 36 ft 20 kts 251°
2026-05-05 07:42 22.30399 113.91341 37 ft 19 kts 251°
2026-05-05 07:42 22.30357 113.91213 37 ft 19 kts 250°
2026-05-05 07:42 22.30307 113.91061 37 ft 23 kts 250°
2026-05-05 07:43 22.30255 113.90895 36 ft 24 kts 251°
2026-05-05 07:43 22.30205 113.90742 37 ft 21 kts 250°
2026-05-05 07:43 22.30154 113.90584 37 ft 23 kts 251°
2026-05-05 07:43 22.30110 113.90446 36 ft 18 kts 251°
2026-05-05 07:44 22.30063 113.90302 37 ft 22 kts 251°
2026-05-05 07:44 22.30017 113.90159 36 ft 12 kts 251°
2026-05-05 07:44 22.29980 113.90046 36 ft 19 kts 250°
2026-05-05 07:44 22.29935 113.89906 37 ft 19 kts 251°
2026-05-05 07:45 22.29895 113.89782 37 ft 13 kts 249°
2026-05-05 07:45 22.29818 113.89741 37 ft 15 kts 169°
2026-05-05 07:45 22.29724 113.89771 36 ft 14 kts 161°
2026-05-05 07:45 22.29649 113.89803 36 ft 11 kts 144°
2026-05-05 07:46 22.29633 113.89854 36 ft 4 kts 66°
2026-05-05 07:46 22.29652 113.89902 37 ft 10 kts 69°
2026-05-05 07:46 22.29694 113.90027 37 ft 42 kts 71°
2026-05-05 07:46 22.29880 113.90622 37 ft 114 kts 71°
2026-05-05 07:47 22.30216 113.91602 53 ft 166 kts 69°
2026-05-05 07:47 22.30612 113.92739 747 ft 163 kts 69°
2026-05-05 07:47 22.30970 113.93856 1443 ft 163 kts 71°
2026-05-05 07:47 22.31327 113.95023 2028 ft 166 kts 72°
2026-05-05 07:48 22.31702 113.96236 2369 ft 181 kts 71°
2026-05-05 07:48 22.32128 113.97586 2739 ft 197 kts 70°
2026-05-05 07:48 22.32580 113.99006 3212 ft 211 kts 71°
2026-05-05 07:48 22.33046 114.00468 3797 ft 219 kts 70°
2026-05-05 07:49 22.33539 114.02004 4526 ft 221 kts 70°
2026-05-05 07:49 22.33848 114.03587 5229 ft 226 kts 87°
2026-05-05 07:49 22.33638 114.05242 5927 ft 232 kts 108°
2026-05-05 07:49 22.32898 114.06743 6634 ft 238 kts 128°
2026-05-05 07:50 22.31690 114.07916 7330 ft 244 kts 147°
2026-05-05 07:50 22.30119 114.08669 7827 ft 260 kts 166°
2026-05-05 07:50 22.28288 114.08873 8446 ft 270 kts 180°
2026-05-05 07:50 22.26414 114.08830 8956 ft 285 kts 182°
2026-05-05 07:51 22.24424 114.08755 9535 ft 297 kts 182°
2026-05-05 07:51 22.22371 114.08697 10308 ft 301 kts 182°
2026-05-05 07:51 22.20260 114.08659 10902 ft 313 kts 181°
2026-05-05 07:51 22.18054 114.08804 11320 ft 330 kts 166°
2026-05-05 07:52 22.15964 114.09851 11678 ft 347 kts 141°
2026-05-05 07:52 22.14384 114.11859 12070 ft 362 kts 118°
2026-05-05 07:52 22.13237 114.14310 12483 ft 376 kts 115°
2026-05-05 07:52 22.12132 114.16811 12795 ft 392 kts 115°
2026-05-05 07:53 22.10945 114.19430 13124 ft 406 kts 116°
2026-05-05 07:53 22.09658 114.22187 13702 ft 413 kts 116°
2026-05-05 07:53 22.08195 114.24812 14371 ft 417 kts 125°
2026-05-05 07:53 22.06366 114.27132 15016 ft 420 kts 135°
2026-05-05 07:54 22.04166 114.29152 15640 ft 424 kts 143°
2026-05-05 07:54 22.01792 114.31007 16257 ft 428 kts 144°
2026-05-05 07:54 21.99378 114.32845 16846 ft 431 kts 144°
2026-05-05 07:54 21.96955 114.34712 17428 ft 435 kts 144°
2026-05-05 07:55 21.94507 114.36623 18003 ft 439 kts 143°
2026-05-05 07:55 21.92050 114.38554 18564 ft 442 kts 143°
2026-05-05 07:55 21.89557 114.40517 19112 ft 445 kts 143°
2026-05-05 07:55 21.87127 114.42575 19626 ft 449 kts 135°
2026-05-05 07:56 21.85129 114.45114 20148 ft 450 kts 122°
2026-05-05 07:56 21.83724 114.48087 20663 ft 451 kts 108°
2026-05-05 07:56 21.82818 114.51273 21182 ft 453 kts 104°
2026-05-05 07:56 21.82031 114.54472 21649 ft 456 kts 103°
2026-05-05 07:57 21.81261 114.57661 22102 ft 460 kts 103°
2026-05-05 07:57 21.80455 114.60933 22568 ft 463 kts 103°
2026-05-05 07:57 21.79621 114.64231 23028 ft 466 kts 105°
2026-05-05 07:57 21.78347 114.67381 23404 ft 472 kts 123°
2026-05-05 07:58 21.76243 114.70080 23883 ft 475 kts 133°
2026-05-05 07:58 21.73975 114.72561 24323 ft 477 kts 134°
2026-05-05 07:58 21.71659 114.75045 24707 ft 480 kts 134°
2026-05-05 07:58 21.69356 114.77544 25085 ft 483 kts 134°
2026-05-05 07:59 21.67029 114.80109 25464 ft 485 kts 133°
2026-05-05 07:59 21.64735 114.82671 25826 ft 488 kts 133°
2026-05-05 07:59 21.62401 114.85299 26181 ft 490 kts 133°
2026-05-05 07:59 21.60055 114.87953 26525 ft 492 kts 133°
2026-05-05 08:00 21.57718 114.90604 26854 ft 494 kts 133°
2026-05-05 08:00 21.55372 114.93268 27172 ft 496 kts 133°
2026-05-05 08:00 21.53030 114.95928 27481 ft 498 kts 132°
2026-05-05 08:00 21.50656 114.98624 27783 ft 500 kts 132°
2026-05-05 08:01 21.48291 115.01309 28083 ft 502 kts 132°
2026-05-05 08:01 21.45912 115.04009 28383 ft 504 kts 132°
2026-05-05 08:01 21.43526 115.06715 28678 ft 505 kts 132°
2026-05-05 08:01 21.41155 115.09403 28977 ft 506 kts 132°
2026-05-05 08:02 21.38790 115.12083 29382 ft 504 kts 132°
2026-05-05 08:02 21.36383 115.14811 29846 ft 501 kts 132°
2026-05-05 08:02 21.34038 115.17466 30291 ft 498 kts 132°
2026-05-05 08:02 21.31699 115.20114 30715 ft 496 kts 132°
2026-05-05 08:03 21.29415 115.22699 31111 ft 493 kts 132°
2026-05-05 08:03 21.27082 115.25339 31461 ft 492 kts 132°
2026-05-05 08:03 21.24796 115.27924 31730 ft 493 kts 132°
2026-05-05 08:03 21.22429 115.30600 31972 ft 494 kts 132°
2026-05-05 08:04 21.20118 115.33210 32203 ft 495 kts 132°
2026-05-05 08:04 21.17753 115.35879 32441 ft 496 kts 132°
2026-05-05 08:04 21.15441 115.38488 32670 ft 496 kts 132°
2026-05-05 08:04 21.13103 115.41123 32892 ft 497 kts 132°
2026-05-05 08:05 21.08393 115.46430 32967 ft 498 kts 132°
2026-05-05 08:05 21.03993 115.51382 32971 ft 499 kts 132°
2026-05-05 08:06 20.99097 115.56889 32973 ft 500 kts 132°
2026-05-05 08:06 20.94344 115.62228 32973 ft 500 kts 133°
2026-05-05 08:07 20.89651 115.67499 32973 ft 500 kts 133°
2026-05-05 08:07 20.85063 115.72641 32973 ft 500 kts 133°
2026-05-05 08:08 20.80333 115.77927 32973 ft 500 kts 133°
2026-05-05 08:08 20.75585 115.83235 32973 ft 500 kts 133°
2026-05-05 08:09 20.70803 115.88580 32973 ft 500 kts 133°
2026-05-05 08:09 20.66142 115.93784 32973 ft 500 kts 133°
2026-05-05 08:10 20.61473 115.98994 32973 ft 500 kts 133°
2026-05-05 08:10 20.56743 116.04266 32973 ft 500 kts 133°
2026-05-05 08:11 20.51985 116.09564 32973 ft 500 kts 133°
2026-05-05 08:11 20.47226 116.14859 32973 ft 500 kts 133°
2026-05-05 08:12 20.42444 116.20174 32973 ft 500 kts 133°
2026-05-05 08:12 20.37730 116.25409 32975 ft 500 kts 133°
2026-05-05 08:13 20.33004 116.30653 32977 ft 500 kts 133°
2026-05-05 08:13 20.28231 116.35944 32976 ft 500 kts 133°
2026-05-05 08:14 20.23455 116.41233 32975 ft 501 kts 133°
2026-05-05 08:14 20.18705 116.46490 32976 ft 500 kts 133°
2026-05-05 08:15 20.13956 116.51741 32981 ft 500 kts 133°
2026-05-05 08:15 20.09168 116.57033 32989 ft 500 kts 133°
2026-05-05 08:16 20.04346 116.62360 33000 ft 500 kts 133°
2026-05-05 08:16 19.99972 116.67189 33009 ft 500 kts 133°